This demonstration page uses our WeatherBlox Daily Observations layout. Learn more.

Left ArrowRight Arrow

38.83388, -104.82136

Hourly Observations for January 27, 2015

Temp ( °F °C ) Dew Point ( °F °C ) Humidity (%) Winds ( mph kmh ) Pressure ( in mb ) Visibility ( mi km ) Precip ( " mm )
12:56 am 00:56 Clear 49 9.3 20 -6.6 32 32 W 3 6 29.84 1010 10 16 N/A
1:56 am 01:56 Clear 56 13.1 16 -9 21 21 SSW 3 6 29.81 1010 10 16 N/A
2:56 am 02:56 Clear 53 11.7 14 -9.8 21 21 W 8 13 29.82 1010 10 16 N/A
3:56 am 03:56 Clear 53 11.6 15 -9.7 22 22 W 7 11 29.78 1009 10 16 N/A
4:56 am 04:56 Clear 51 10.8 16 -8.8 25 25 W 6 9 29.78 1009 10 16 N/A
5:56 am 05:56 Clear 52 10.9 14 -10.2 22 22 WNW 8 13 29.80 1009 10 16 N/A
6:56 am 06:56 Clear 55 12.6 12 -11.1 18 18 WSW 7 11 29.79 1009 10 16 N/A
7:56 am 07:56 Sunny 55 12.5 12 -11.1 18 18 SE 2 4 29.80 1009 10 16 N/A
8:56 am 08:56 Sunny 55 12.7 16 -8.9 21 21 WNW 2 4 29.81 1010 10 16 N/A
9:56 am 09:56 Sunny 58 14.5 17 -8.3 20 20 N 1 2 29.79 1009 10 16 N/A
10:56 am 10:56 Sunny 61 15.9 18 -8 19 19 SSE 5 7 29.76 1008 10 16 N/A
11:56 am 11:56 Sunny 60 15.8 19 -7.4 20 20 NNE 3 6 29.73 1007 10 16 N/A
12:56 pm 12:56 Sunny 60 15.3 20 -6.5 22 22 NW 3 6 29.71 1006 10 16 N/A
1:56 pm 13:56 Sunny 60 15.3 26 -3.5 27 27 ESE 6 9 29.65 1004 10 16 N/A
2:56 pm 14:56 Sunny 61 15.9 25 -3.7 26 26 SSE 5 7 29.63 1003 10 16 N/A
3:56 pm 15:56 Sunny 53 11.7 25 -3.8 34 34 WNW 5 7 29.65 1004 10 16 N/A
4:56 pm 16:56 Sunny 53 11.6 22 -5.5 30 30 SW 5 7 29.66 1004 10 16 N/A
5:56 pm 17:56 Clear 59 15.1 15 -9.6 17 17 W 17 28 29.60 1003 10 16 N/A
6:56 pm 18:56 Clear 53 11.6 19 -7.4 26 26 WNW 7 11 29.62 1003 10 16 N/A
7:56 pm 19:56 Clear 53 11.6 17 -8.3 24 24 WSW 5 7 29.61 1003 10 16 N/A
8:56 pm 20:56 Clear 57 13.9 13 -10.7 17 17 W 5 7 29.58 1002 10 16 N/A
9:36 pm 21:36 Clear 57 14 12 -11 17 17 WSW 17 28 29.44 997 10 16 N/A
9:41 pm 21:41 Clear 59 15 14 -10 17 17 W 15 24 29.44 997 10 16 N/A
9:56 pm 21:56 Clear 57 14.1 15 -9.5 19 19 WNW 18 30 29.56 1001 10 16 N/A
10:56 pm 22:56 Clear 54 12.1 16 -8.9 22 22 SW 5 7 29.57 1001 10 16 N/A
11:56 pm 23:56 Clear 52 11.2 17 -8.6 24 24 SSW 6 9 29.57 1002 10 16 N/A

Powered by AerisWeather